FENGYUN 1C DEB

Satellite information

Favourite Embed

Satellite Type and Status

DEBRISIN ORBIT

Key statistics

Satellite FENGYUN 1C DEB at a glance.

Uptime

9715

Days in orbit

Revolutions

≈ 14.2

Per day

Orbit

SSO

Sun Synchronous Orbit

Inclination

98.5

Latest

Satellite identification and parameters

Extended collection of information and parameters for FENGYUN 1C DEB.

Object identification

Identified? True

Debris? True

Object name: FENGYUN 1C DEB

International designator: 1999-025DMK

Object number (NORAD): 35155

Object ID (CCSDS): 35155

Country: PEOPLES REPUBLIC OF CHINA (PRC)

Current information (Y/N): Y

RCS size: SMALL

Orbital parameters

Period: 101.463 minutes

Inclination: 98.5005 deg

SMA: 7206.071 km

Apoapsis: 846.883 km

Periapsis: 808.989 km

RAAN: 347.8913 deg

Eccentricy: 0.00262936

Argument of periapsis: 103.4458 deg

Mean anomaly: 256.9651 deg

Mean motion: 14.19237116 rev/day

Mean motion (dot): 0.00001325 rev/day2

B* drag term: 0.00064940785 1/REarth

Two-line elements (TLE)

Creation date: Dec. 2, 2025, 11:04 a.m.

Reference frame: TEME

Reference center: EARTH

Epoch: Dec. 1, 2025, 6:40 p.m. UTC

TLE line 0: 0 FENGYUN 1C DEB

TLE line 1: 1 35155U 99025DMK 25335.77805431 .00001325 00000-0 64941-3 0 9995

TLE line 2: 2 35155 98.5005 347.8913 0026294 103.4458 256.9651 14.19237116725587

Live tracking on map

Real-time ground track for satellite FENGYUN 1C DEB.

In-orbit conjunctions

A list of the most updated potential collisions computed for object FENGYUN 1C DEB.

Target Orbit TCA Probability of collision Miss distance Type
SL-12 R/B(2) LEO 2025-10-21 23:28:41 0.0002859463 341.0 (m) ROCKET BODY
SPOT 3 SSO 2025-07-07 11:01:56 0.0003690325 652.0 (m) PAYLOAD
THORAD AGENA D DEB LEO 2025-05-22 17:20:10 0.000103855 558.0 (m) DEBRIS
SL-16 R/B LEO 2024-10-01 21:38:30 0.001142297 76.0 (m) ROCKET BODY

Associated space launch

Chinese polar orbiting meteorological satellite

FENGYUN 1C DEB was lifted into orbit during the mission ‘Long March 4B | Feng Yun 1C’, on board a Long March 4B space rocket.

The launch took place on May 10, 1999, 1:33 a.m. from Launch Complex 7.

For more information about the launch, click the button.

Launch to space Long March 4B | Feng Yun 1C
Long March 4B | Feng Yun 1C

Agency: N/A

Status: Launch Successful

Launch date: May 10, 1999, 1:33 a.m. UTC

Rocket: Long March 4B

Launch pad: Launch Complex 7

Location: Taiyuan Satellite Launch Center, People's Republic of China

...

Latest news about this satellite

There are no fresh news available about this satellite. Check back as we update our databases every day.


Newsletter sign-up

Weekly statistics, charts and insights to help you stay on top of the space industry.